CAPE
0 0 0 0 0 0 0 0 0 0 52 212 241 217 319 655 680 461 308 386 386 377 480 548 569 626 597 463 403 302 294 280 281 367 470 584 374 768 691 827 665 293 324 755
0 0 0 0 0 0 0 0 0 0 65 244 279 199 197 630 643 649 522 312 408 441 563 636 656 675 702 604 454 471 410 468 436 570 522 719 787 905 627 629 400 250 237 433
0 0 0 0 0 0 0 0 0 0 11 247 175 58 127 354 709 840 762 638 422 405 455 490 642 678 714 650 663 554 553 535 465 577 502 554 1009 739 412 709 809 762 807 686
0 0 0 0 0 0 0 0 0 0 0 0 8 0 30 115 191 474 656 700 647 531 475 475 455 599 547 519 668 681 708 651 544 659 647 579 774 434 164 161 632 937 990 1362
0 0 0 0 0 0 0 0 0 0 0 0 0 0 0 11 31 36 271 568 586 536 451 461 457 429 419 341 425 539 645 639 604 650 707 676 788 691 212 229 439 466 390 443
0 0 0 0 0 0 0 0 0 0 0 0 0 0 0 29 0 1 51 216 391 514 490 504 519 506 437 280 282 370 521 453 533 688 766 715 859 812 273 140 281 239 92 44
0 0 0 0 0 0 0 0 0 0 0 0 0 0 0 0 0 0 0 20 69 283 425 529 518 487 461 296 391 331 454 467 483 612 736 729 768 797 668 506 469 300 77 13
0 0 0 0 0 0 0 0 0 0 0 0 0 0 0 0 4 0 0 0 2 46 214 470 547 571 540 426 472 485 487 467 449 408 560 659 536 199 465 555 539 413 127 5
0 0 0 0 0 0 0 0 0 0 0 0 0 0 0 0 0 0 0 27 85 44 134 351 543 618 620 537 572 533 569 617 684 559 638 616 448 371 509 630 413 57 0 0
0 0 0 0 0 0 0 0 0 0 0 0 0 0 0 0 0 0 0 2 156 185 153 230 567 689 613 588 642 621 661 714 958 954 862 827 786 464 378 138 41 0 0 0
0 0 0 0 0 0 0 0 0 0 0 0 0 0 0 0 0 0 0 1 185 190 246 288 514 675 612 572 610 568 714 954 1171 1196 1111 888 426 155 44 2 0 0 0 0
0 0 0 0 0 0 0 0 0 0 0 0 0 0 0 0 0 0 0 0 116 185 338 498 638 689 590 530 606 706 790 908 1035 1019 709 469 151 15 0 0 0 0 0 0
0 0 0 0 0 0 0 0 0 0 0 0 0 0 0 0 0 0 0 0 21 203 325 533 682 697 669 652 694 670 639 621 719 514 400 101 1 0 0 0 0 0 0 0
0 0 0 0 0 0 0 0 0 0 0 0 0 0 0 0 0 0 0 0 15 163 329 450 560 635 756 877 812 721 717 761 466 350 148 56 0 0 0 0 0 0 0 0
0 0 0 0 0 0 0 0 0 0 0 0 0 0 0 0 0 0 0 0 0 123 351 514 576 643 922 1142 1035 898 820 612 234 165 173 40 0 0 0 0 0 0 0 0
0 0 0 0 0 0 0 0 0 0 0 0 0 0 0 0 38 39 41 0 0 156 397 605 938 967 1141 1223 1072 866 658 286 432 431 261 0 0 0 0 0 0 0 0 0
0 0 0 0 0 0 0 0 0 0 1 0 0 0 55 0 1 132 151 44 77 332 448 691 1100 1201 1171 1144 960 669 481 525 437 170 6 0 0 0 0 0 0 0 0 0
0 0 0 0 0 0 0 93 60 386 437 379 327 321 450 407 422 401 168 2 0 480 661 936 1328 1405 1314 1164 859 556 708 601 290 66 0 0 0 0 0 0 0 0 0 0
0 0 0 0 0 0 0 139 327 439 479 398 374 352 556 645 682 186 132 672 585 377 1007 1315 1542 1552 1284 954 725 607 717 477 233 38 0 0 0 0 0 0 0 0 0 0
0 0 0 0 0 0 0 141 209 305 386 427 360 394 452 907 333 845 1032 955 672 1036 1235 1514 1647 1423 879 651 517 747 775 389 136 3 0 0 0 0 0 0 0 0 0 0
0 0 0 0 0 0 0 93 288 296 407 281 200 217 251 525 781 981 1412 1235 1214 1311 1657 1701 1608 1015 675 401 695 861 614 230 15 1 0 0 0 0 0 0 0 0 0 0
0 0 0 0 0 0 125 305 461 269 283 137 139 112 66 46 335 1298 1540 1411 1551 1705 1603 1428 1135 834 528 387 718 626 59 1 1 1 1 0 0 0 0 0 0 0 0 0
2 38 35 20 166 74 190 186 265 204 173 100 68 85 95 48 84 1241 1547 1404 1255 1173 1044 1054 938 426 209 362 260 45 0 0 0 0 1 0 0 0 0 0 0 0 0 0
0 3 37 51 131 181 1 102 300 270 198 67 113 31 134 110 25 1146 1563 1423 1183 917 851 613 422 344 184 54 41 130 0 0 0 0 0 0 0 0 0 0 0 0 0 0
0 0 58 65 109 26 0 0 7 4 0 0 77 5 128 131 177 996 1554 1489 1227 915 623 476 395 350 150 109 134 60 0 0 0 1 0 0 0 0 0 0 0 0 0 0
0 0 0 0 0 0 0 0 0 0 0 0 33 0 0 119 509 874 1515 1571 1363 1115 967 829 554 433 372 483 292 4 2 2 2 0 0 0 0 0 0 0 0 0 0 0
CIN
-0 -0 -0 -0 -0 -0 -0 -0 -0 -0 -236 -148 -102 -102 -149 -218 -238 -235 -216 -193 -134 -105 -81 -86 -79 -82 -90 -100 -113 -116 -112 -132 -128 -112 -92 -75 -85 -46 -47 -36 -40 -77 -66 -45
-0 -0 -0 -0 -0 -0 -0 -0 -0 -0 -237 -183 -144 -116 -181 -247 -234 -223 -212 -201 -165 -120 -129 -118 -103 -86 -96 -90 -106 -125 -113 -124 -121 -92 -99 -64 -43 -34 -49 -52 -71 -101 -93 -76
-0 -0 -0 -0 -0 -0 -0 -0 -0 -0 -298 -171 -183 -108 -154 -271 -289 -286 -255 -213 -184 -130 -113 -103 -113 -105 -100 -112 -107 -121 -131 -120 -129 -103 -104 -97 -61 -52 -57 -68 -52 -71 -65 -71
-0 -0 -0 -0 -0 -0 -0 -0 -0 -0 -0 -0 -301 -0 -100 -191 -229 -326 -315 -263 -209 -160 -152 -142 -122 -111 -113 -104 -157 -144 -138 -135 -140 -127 -92 -71 -46 -24 -57 -90 -41 -47 -56 -37
-0 -0 -0 -0 -0 -0 -0 -0 -0 -0 -0 -0 -0 -0 -0 -202 -101 -152 -254 -307 -252 -199 -179 -136 -139 -129 -133 -151 -160 -180 -193 -163 -163 -136 -86 -74 -55 -34 -64 -83 -67 -86 -106 -109
-0 -0 -0 -0 -0 -0 -0 -0 -0 -0 -0 -0 -0 -0 -0 -76 -0 -79 -171 -286 -299 -238 -212 -174 -150 -186 -167 -245 -232 -224 -212 -202 -189 -140 -110 -89 -51 -44 -69 -100 -79 -103 -149 -194
-0 -0 -0 -0 -0 -0 -0 -0 -0 -0 -0 -0 -0 -0 -0 -0 -0 -0 -0 -229 -317 -304 -248 -229 -212 -207 -227 -264 -229 -249 -233 -212 -221 -179 -131 -88 -70 -57 -43 -67 -82 -93 -151 -213
-0 -0 -0 -0 -0 -0 -0 -0 -0 -0 -0 -0 -0 -0 -0 -0 -123 -0 -0 -118 -244 -354 -280 -242 -219 -196 -248 -269 -267 -257 -256 -222 -233 -212 -164 -125 -111 -154 -83 -80 -86 -88 -166 -385
-0 -0 -0 -0 -0 -0 -0 -0 -0 -0 -0 -0 -0 -0 -0 -0 -0 -0 -0 -281 -311 -378 -317 -262 -273 -243 -274 -289 -279 -270 -265 -243 -230 -224 -187 -143 -126 -109 -79 -75 -121 -251 -0 -0
-0 -0 -0 -0 -0 -0 -0 -0 -0 -0 -0 -0 -0 -0 -0 -0 -0 -0 -0 -55 -263 -373 -402 -356 -304 -280 -330 -358 -364 -353 -317 -247 -212 -202 -175 -135 -85 -127 -136 -237 -312 -0 -0 -0
-0 -0 -0 -0 -0 -0 -0 -0 -0 -0 -0 -0 -0 -0 -0 -0 -0 -0 -0 -29 -261 -342 -423 -407 -364 -361 -421 -452 -466 -410 -363 -276 -218 -189 -140 -136 -188 -305 -355 -223 -0 -0 -0 -0
-0 -0 -0 -0 -0 -0 -0 -0 -0 -0 -0 -0 -0 -0 -0 -0 -0 -0 -0 -0 -277 -319 -369 -410 -399 -417 -489 -522 -503 -452 -398 -308 -241 -203 -215 -238 -338 -445 -14 -0 -0 -0 -0 -0
-0 -0 -0 -0 -0 -0 -0 -0 -0 -0 -0 -0 -0 -0 -0 -0 -0 -0 -0 -0 -241 -401 -411 -423 -435 -438 -492 -517 -539 -497 -454 -390 -341 -353 -295 -417 -46 -0 -0 -0 -0 -0 -0 -0
-0 -0 -0 -0 -0 -0 -0 -0 -0 -0 -0 -0 -0 -0 -0 -0 -0 -0 -0 -0 -396 -386 -448 -451 -490 -541 -543 -516 -527 -490 -424 -351 -387 -352 -388 -410 -0 -0 -0 -0 -0 -0 -0 -0
-0 -0 -0 -0 -0 -0 -0 -0 -0 -0 -0 -0 -0 -0 -0 -0 -0 -0 -0 -0 -0 -334 -414 -459 -484 -578 -581 -488 -460 -442 -403 -407 -499 -448 -424 -444 -0 -0 -0 -0 -0 -0 -0 -0
-0 -0 -0 -0 -0 -0 -0 -0 -0 -0 -0 -0 -0 -0 -0 -1 -371 -328 -361 -0 -0 -316 -364 -499 -545 -606 -566 -506 -500 -511 -537 -620 -510 -547 -732 -0 -0 -0 -0 -0 -0 -0 -0 -0
-0 -0 -0 -0 -0 -0 -0 -6 -0 -0 -49 -0 -0 -0 -255 -0 -34 -324 -362 -347 -352 -328 -415 -442 -516 -576 -587 -578 -613 -670 -662 -529 -518 -574 -540 -0 -0 -0 -0 -0 -0 -0 -0 -0
-0 -0 -0 -0 -0 -0 -0 -177 -110 -139 -167 -219 -195 -220 -278 -294 -364 -410 -543 -160 -0 -443 -470 -493 -519 -573 -577 -601 -638 -665 -529 -507 -581 -612 -0 -0 -0 -0 -0 -0 -0 -0 -0 -0
-0 -0 -0 -0 -0 -0 -0 -100 -92 -118 -101 -239 -217 -263 -259 -280 -270 -312 -585 -575 -648 -590 -548 -511 -506 -536 -575 -662 -677 -623 -506 -503 -544 -667 -0 -0 -0 -0 -0 -0 -0 -0 -0 -0
-0 -0 -0 -0 -0 -0 -0 -138 -247 -205 -77 -213 -273 -261 -242 -206 -45 -135 -440 -555 -625 -599 -538 -515 -489 -510 -645 -662 -593 -435 -443 -522 -595 -0 -0 -0 -0 -0 -0 -0 -0 -0 -0 -0
-0 -0 -0 -0 -0 -0 -0 -178 -263 -29 -58 -260 -347 -359 -338 -203 -244 -360 -402 -494 -552 -523 -465 -429 -435 -585 -653 -705 -481 -323 -332 -502 -532 -0 -0 -0 -0 -0 -0 -0 -0 -0 -0 -0
-0 -0 -0 -0 -0 -0 -121 -107 -82 -218 -200 -297 -363 -435 -426 -459 -345 -258 -312 -406 -417 -388 -401 -433 -490 -562 -664 -639 -364 -284 -603 -0 -0 -0 -0 -0 -0 -0 -0 -0 -0 -0 -0 -0
-13 -93 -49 -42 -12 -80 -164 -164 -200 -239 -269 -265 -342 -419 -484 -458 -429 -272 -284 -359 -390 -413 -459 -451 -495 -663 -694 -483 -549 -725 -0 -0 -0 -0 -0 -0 -0 -0 -0 -0 -0 -0 -0 -0
-0 -85 -97 -74 -74 -65 -16 -189 -214 -227 -260 -402 -301 -376 -448 -452 -489 -258 -234 -328 -353 -408 -437 -520 -603 -629 -636 -752 -755 -498 -0 -0 -0 -0 -0 -0 -0 -0 -0 -0 -0 -0 -0 -0
-0 -0 -109 -95 -109 -119 -0 -0 -133 -173 -0 -0 -388 -227 -372 -443 -413 -260 -189 -252 -323 -370 -422 -454 -481 -511 -581 -628 -565 -538 -0 -0 -0 -0 -0 -0 -0 -0 -0 -0 -0 -0 -0 -0
-0 -0 -0 -0 -0 -0 -0 -0 -0 -0 -0 -0 -329 -0 -0 -402 -308 -244 -156 -162 -246 -284 -288 -269 -313 -335 -349 -312 -375 -0 -0 -0 -0 -0 -0 -0 -0 -0 -0 -0 -0 -0 -0 -0
Wind_Speed
17 11 5 1 6 10 11 12 14 13 12 10 8 6 8 11 11 13 13 16 19 20 19 19 20 21 17 17 18 15 13 10 8 8 9 9 10 8 9 12 14 12 12 13
15 10 16 13 9 13 14 16 15 15 17 10 7 5 7 10 11 14 14 17 20 20 19 20 20 22 23 19 22 21 21 20 20 19 12 10 9 9 10 10 10 9 11 14
18 21 19 14 13 12 14 16 15 14 17 12 6 8 12 10 11 13 16 20 22 22 21 21 23 26 26 25 25 24 24 22 21 20 19 19 18 16 10 7 8 10 10 12
22 24 20 20 19 16 25 12 16 15 16 20 17 3 14 11 9 9 12 18 22 24 25 24 24 25 26 26 23 24 24 22 22 21 20 19 18 16 16 15 13 21 12 18
18 19 21 23 23 19 23 16 19 20 18 16 15 10 16 16 6 6 9 13 21 23 27 27 25 23 22 20 21 20 21 22 20 19 19 19 18 16 17 17 16 15 11 13
21 19 19 19 21 19 17 18 19 20 19 14 20 7 15 4 9 23 11 9 14 25 26 28 27 17 17 16 17 18 19 20 19 19 18 18 17 16 16 16 14 14 11 12
25 25 22 20 23 21 19 19 21 21 16 16 20 14 9 25 22 26 28 5 11 23 26 26 23 16 15 15 17 19 20 20 18 17 18 18 17 15 15 14 13 12 11 11
28 29 23 20 21 23 22 22 22 21 18 22 17 18 22 27 30 30 26 16 10 14 22 25 23 16 16 15 16 18 18 17 17 16 15 12 11 12 12 11 10 10 10 11
24 27 21 20 22 19 19 21 23 25 25 27 27 28 33 28 27 28 23 19 7 10 17 23 22 15 12 12 13 10 11 11 11 11 10 10 7 7 7 7 8 9 10 11
22 30 24 21 17 19 22 15 21 21 25 25 28 30 30 23 28 28 25 20 9 8 10 18 21 16 10 8 8 7 7 9 8 9 11 12 9 6 7 7 8 8 10 11
19 22 22 20 21 24 23 24 22 23 26 30 35 31 23 29 26 28 25 23 11 5 9 10 15 13 10 7 7 9 9 7 6 7 7 9 8 8 8 8 8 9 10 11
20 22 27 27 22 24 26 28 26 31 30 30 34 40 31 31 31 29 31 23 14 8 3 8 13 10 10 11 12 12 10 7 5 4 4 6 7 8 8 9 9 9 10 12
21 22 27 24 19 18 23 26 28 28 29 34 39 39 24 27 29 30 31 24 19 10 5 2 11 13 17 18 16 13 11 9 6 4 4 5 6 7 8 8 9 10 11 12
20 21 23 26 27 26 28 27 29 32 35 36 39 40 35 29 31 31 31 26 17 10 8 3 7 12 12 14 14 13 10 7 5 3 3 5 6 7 8 8 9 10 11 13
24 26 22 27 27 22 26 29 27 28 33 33 36 31 31 28 32 31 30 29 18 11 7 5 6 11 8 8 9 10 11 12 8 6 3 4 5 7 7 8 9 11 13 13
25 28 26 30 22 27 31 28 27 28 29 32 34 34 24 31 29 28 27 27 20 12 9 6 7 6 8 10 11 12 14 15 17 15 14 6 2 3 4 6 8 10 12 11
22 25 27 33 27 32 33 26 26 25 24 24 28 27 32 32 31 29 28 29 28 13 11 9 6 8 10 12 13 15 15 17 13 9 8 10 7 3 3 5 8 10 10 9
16 19 24 33 31 34 24 19 22 23 22 23 25 28 31 33 33 31 27 27 29 20 7 8 7 8 10 10 12 13 15 16 10 8 5 5 1 2 2 4 7 8 9 8
5 13 18 24 29 31 28 20 20 24 23 22 24 26 29 31 30 19 21 27 29 31 5 7 9 8 8 10 13 14 14 11 7 7 6 7 8 3 3 3 5 7 7 8
10 11 15 18 21 32 26 20 20 18 27 20 22 24 28 29 32 29 34 33 30 26 13 6 6 6 7 8 10 12 13 12 8 6 5 6 10 5 2 3 4 5 6 7
13 15 13 17 23 24 21 24 18 23 22 21 23 24 26 26 27 34 33 30 27 20 12 7 4 6 7 8 12 11 9 7 5 5 7 5 6 2 0 2 3 4 5 5
14 14 15 18 21 28 19 15 23 26 22 27 23 25 28 28 28 28 28 27 24 19 13 9 6 6 6 8 10 8 6 8 9 7 1 4 7 3 2 2 3 3 4 4
18 12 16 13 18 18 22 20 23 26 30 27 27 27 29 29 29 28 26 23 22 19 16 14 12 10 6 6 8 7 4 1 3 9 5 3 3 5 2 2 3 2 3 4
20 18 18 20 19 16 18 16 23 26 29 32 32 30 30 29 29 27 25 22 20 18 16 13 11 9 7 5 8 8 6 3 8 7 6 5 4 4 5 4 2 1 1 4
22 17 20 21 20 23 18 11 16 26 29 32 30 29 31 31 31 27 25 21 18 16 14 11 10 8 7 6 8 9 5 4 3 9 7 7 4 3 6 5 2 2 2 3
23 24 25 24 25 23 21 30 27 31 30 31 30 32 33 32 31 27 22 20 16 14 13 12 10 8 6 5 6 7 8 3 9 10 10 9 4 3 6 3 5 5 4 1
Wind_Direction
278 288 288 345 349 346 357 36 35 46 71 100 143 135 93 122 133 144 142 148 160 165 165 161 164 166 154 156 154 142 130 113 87 56 39 359 357 20 358 341 337 356 7 11
277 264 278 299 311 314 318 333 2 19 18 78 106 148 86 126 153 159 159 164 168 169 162 163 163 169 171 161 169 163 161 153 151 145 77 36 37 17 2 7 7 10 8 358
266 277 275 283 294 302 310 317 339 2 359 31 179 168 57 95 147 164 179 181 182 176 173 166 169 173 176 175 172 171 172 164 159 150 137 143 138 159 112 54 90 333 24 30
274 273 275 274 281 288 289 312 319 337 348 339 4 194 228 54 99 139 168 182 185 184 184 178 175 173 174 177 165 167 171 164 160 151 147 149 150 146 160 141 128 208 242 207
280 280 272 273 275 281 289 301 303 311 322 339 347 29 204 351 103 134 149 170 184 183 185 184 177 168 164 157 155 150 151 158 154 149 149 151 155 150 144 156 84 103 34 42
281 287 287 287 286 277 281 292 301 306 310 318 319 19 213 226 38 336 43 169 178 186 183 186 183 160 153 142 142 144 142 148 150 150 149 150 148 148 128 122 112 108 65 16
282 279 281 283 283 283 281 279 285 291 296 301 308 325 188 258 244 266 285 101 170 182 182 180 175 163 155 150 148 148 150 153 147 148 155 156 152 147 144 133 117 107 87 68
279 277 277 277 273 279 275 268 271 280 286 295 309 305 308 250 266 286 309 345 152 163 177 177 176 169 163 155 153 151 152 150 148 148 147 139 132 139 139 131 105 97 87 62
281 280 286 284 277 274 280 273 278 279 288 288 288 291 267 255 250 271 308 336 47 130 163 175 173 170 172 167 164 162 149 141 136 132 132 132 117 99 86 79 65 58 50 45
289 281 285 283 281 283 279 286 276 279 280 283 286 283 280 305 296 288 299 324 348 107 134 163 168 167 170 173 173 169 161 148 131 124 133 137 128 94 64 54 44 49 38 33
303 287 288 287 277 274 276 276 280 281 279 281 278 279 293 290 304 287 298 304 328 38 126 144 160 165 165 169 169 169 164 154 130 115 116 118 105 85 74 52 43 35 30 23
310 297 283 280 291 286 276 272 273 272 274 278 279 270 288 288 289 294 285 305 319 313 63 131 145 151 158 159 158 160 156 148 127 72 67 73 70 69 71 63 46 36 26 16
312 300 291 286 295 297 281 277 273 275 278 273 272 273 301 302 294 289 277 297 305 298 308 126 144 152 155 157 155 152 148 141 125 76 66 35 41 40 40 43 43 39 35 25
310 301 295 288 288 290 282 283 277 270 270 273 272 276 284 292 292 288 285 294 311 292 282 166 163 160 157 154 151 148 144 136 114 73 16 11 11 22 24 32 38 34 25 20
305 293 295 294 292 293 289 285 283 274 272 270 277 277 284 289 290 289 287 285 304 290 259 203 184 166 169 159 153 156 151 142 128 115 354 353 357 5 11 8 7 12 8 13
304 289 290 286 297 293 287 288 284 281 276 275 276 274 290 287 294 296 291 288 304 287 255 249 258 185 179 172 166 161 158 155 154 160 126 157 96 44 28 19 7 8 3 21
312 295 287 281 289 290 282 288 285 284 281 281 274 279 285 283 286 293 293 287 286 291 267 250 238 187 181 179 173 172 167 159 158 159 141 125 137 115 58 19 13 4 14 32
313 309 295 283 287 277 289 305 291 285 285 284 284 284 284 282 285 290 295 291 279 287 243 232 223 200 188 180 177 172 167 165 168 158 145 119 139 133 48 37 12 17 27 43
294 308 310 295 283 283 285 290 292 282 281 287 286 288 289 290 286 300 315 300 285 269 265 238 236 218 205 193 177 174 169 174 181 184 162 140 137 146 105 57 42 32 42 55
2 328 311 310 299 282 290 294 294 291 276 287 291 294 294 296 280 284 296 295 288 288 294 269 207 225 218 206 194 185 182 180 195 187 174 148 144 149 105 68 70 46 56 57
341 328 311 306 301 299 306 298 290 272 281 288 290 292 298 298 297 288 292 296 299 303 305 301 258 244 226 205 190 196 201 238 227 196 166 149 150 188 25 52 45 58 58 66
329 329 322 315 306 298 316 309 274 280 284 282 291 293 291 298 306 309 303 301 303 303 303 297 284 270 236 205 192 195 246 291 285 262 249 144 146 251 314 40 39 33 53 56
315 315 320 320 320 330 312 316 289 279 270 277 289 296 295 297 302 310 316 313 307 304 299 294 290 284 270 219 191 190 201 144 343 278 272 230 186 272 311 350 355 16 58 31
309 310 309 312 313 312 320 320 295 280 280 279 283 291 292 295 299 306 314 317 315 314 305 302 296 287 268 227 191 178 173 286 316 248 207 191 193 264 300 318 338 58 4 345
305 310 307 303 302 304 314 316 313 288 284 286 282 292 289 291 296 300 309 316 320 321 317 317 299 286 263 219 200 190 200 230 93 203 185 172 189 252 297 315 324 328 340 11
292 291 290 289 294 296 296 293 296 289 289 289 289 291 290 293 292 298 304 306 318 327 328 316 311 298 271 199 217 245 268 205 151 159 165 163 185 249 297 317 315 319 340 38